CCM26H EBCI-LFKB

Flight info

Callsign CCM26H
Flight time N/A
Altitude 37000
Route RITAX UT27 ROUSY DCT GTQ DCT DEVDI DCT ODINA DCT OLETI M858 LIGUR
Aircraft A320/M-SDE3FGHIRWY/LB1

Departure

Time 2026-05-06 10:44
Airport Brussels South Charleroi Airport (EBCI)

Arrival

Time N/A
Airport Bastia-Poretta International airport (LFKB)
Time Latitude Longitude Altitude Speed Heading
2026-05-06 10:44 50.44847 4.41299 1854 ft 167 kts 250°
2026-05-06 10:44 50.44365 4.39625 2548 ft 171 kts 250°
2026-05-06 10:44 50.43851 4.37824 2885 ft 192 kts 250°
2026-05-06 10:45 50.43277 4.35797 3178 ft 215 kts 249°
2026-05-06 10:45 50.42632 4.33532 3526 ft 240 kts 249°
2026-05-06 10:45 50.41912 4.31017 4014 ft 264 kts 248°
2026-05-06 10:45 50.41157 4.28325 4786 ft 273 kts 253°
2026-05-06 10:46 50.40920 4.25400 5639 ft 273 kts 280°
2026-05-06 10:46 50.41547 4.22622 6467 ft 274 kts 305°
2026-05-06 10:46 50.42870 4.20596 6770 ft 269 kts 333°
2026-05-06 10:46 50.44578 4.19367 7216 ft 273 kts 338°
2026-05-06 10:47 50.46384 4.18351 8231 ft 272 kts 349°
2026-05-06 10:47 50.48268 4.18143 9174 ft 275 kts
2026-05-06 10:47 50.50147 4.18816 9961 ft 281 kts 22°
2026-05-06 10:47 50.51928 4.20254 10418 ft 298 kts 28°
2026-05-06 10:48 50.53814 4.21899 10651 ft 322 kts 29°
2026-05-06 10:48 50.55838 4.23674 10846 ft 345 kts 29°
2026-05-06 10:48 50.57950 4.25525 11263 ft 357 kts 28°
2026-05-06 10:48 50.60131 4.27430 11955 ft 361 kts 29°
2026-05-06 10:49 50.62232 4.29622 12650 ft 365 kts 39°
2026-05-06 10:49 50.64030 4.32461 13383 ft 368 kts 50°
2026-05-06 10:49 50.65445 4.35846 14004 ft 374 kts 61°
2026-05-06 10:49 50.66542 4.39586 14610 ft 378 kts 64°
2026-05-06 10:50 50.67634 4.43380 15145 ft 383 kts 65°
2026-05-06 10:50 50.68743 4.47219 15686 ft 387 kts 64°
2026-05-06 10:50 50.69869 4.51111 16217 ft 392 kts 65°
2026-05-06 10:50 50.70803 4.55179 16740 ft 398 kts 75°
2026-05-06 10:51 50.71238 4.59449 17219 ft 403 kts 86°
2026-05-06 10:51 50.71150 4.63899 17757 ft 407 kts 97°
2026-05-06 10:51 50.70520 4.68272 18251 ft 412 kts 107°
2026-05-06 10:51 50.69655 4.72588 18723 ft 414 kts 107°
2026-05-06 10:52 50.68788 4.76932 19238 ft 416 kts 107°
2026-05-06 10:52 50.67920 4.81287 19737 ft 418 kts 107°
2026-05-06 10:52 50.66999 4.85644 20206 ft 420 kts 112°
2026-05-06 10:52 50.65690 4.89760 20690 ft 422 kts 122°
2026-05-06 10:53 50.63948 4.93501 21167 ft 424 kts 131°
2026-05-06 10:53 50.61885 4.96831 21631 ft 426 kts 135°
2026-05-06 10:53 50.59811 5.00087 22090 ft 428 kts 135°
2026-05-06 10:53 50.57697 5.03407 22524 ft 431 kts 135°
2026-05-06 10:54 50.55572 5.06746 22959 ft 433 kts 135°
2026-05-06 10:54 50.53438 5.10096 23391 ft 435 kts 134°
2026-05-06 10:54 50.51291 5.13463 23746 ft 437 kts 135°
2026-05-06 10:54 50.49138 5.16840 24149 ft 438 kts 135°
2026-05-06 10:55 50.46977 5.20222 24513 ft 439 kts 134°
2026-05-06 10:55 50.44809 5.23610 24896 ft 440 kts 134°
2026-05-06 10:55 50.42668 5.26950 25248 ft 442 kts 135°
2026-05-06 10:55 50.40484 5.30352 25589 ft 444 kts 134°
2026-05-06 10:56 50.38290 5.33765 25930 ft 445 kts 134°
2026-05-06 10:56 50.36091 5.37178 26310 ft 445 kts 134°
2026-05-06 10:56 50.33879 5.40602 26618 ft 447 kts 135°
2026-05-06 10:56 50.31663 5.44029 26947 ft 448 kts 134°
2026-05-06 10:57 50.29440 5.47463 27262 ft 450 kts 134°
2026-05-06 10:57 50.27210 5.50904 27526 ft 452 kts 134°
2026-05-06 10:57 50.24965 5.54370 27803 ft 454 kts 135°
2026-05-06 10:57 50.22746 5.57791 28171 ft 454 kts 134°
2026-05-06 10:58 50.20500 5.61243 28586 ft 453 kts 135°
2026-05-06 10:58 50.18254 5.64682 28988 ft 452 kts 135°
2026-05-06 10:58 50.16006 5.68117 29384 ft 452 kts 135°
2026-05-06 10:58 50.13767 5.71536 29830 ft 450 kts 134°